Meteo pe oră la Dzianisz

Astăzi, 29 Septembrie, Marţi

Timp Temperatura Precipitaţii Vânt Presiune Umiditate
00:00 +8°C° 0.4 mm 0 m/s 684 mmHg 97%
01:00 +8°C° 0 mm 0 m/s 684 mmHg 97%
02:00 +8°C° 0.3 mm 0 m/s 684 mmHg 97%
03:00 +8°C° 0.3 mm 0 m/s 683 mmHg 97%
04:00 +9°C° 0.3 mm 1 m/s 683 mmHg 97%
05:00 +8°C° 0.1 mm 0 m/s 684 mmHg 97%
06:00 +8°C° 0.1 mm 0 m/s 684 mmHg 96%
07:00 +8°C° 0 mm 0 m/s 684 mmHg 95%
08:00 +10°C° 0.1 mm 1 m/s 684 mmHg 92%
09:00 +11°C° 0.1 mm 1 m/s 684 mmHg 89%
10:00 +12°C° 0.1 mm 1 m/s 685 mmHg 87%
11:00 +12°C° 0.2 mm 1 m/s 685 mmHg 84%
12:00 +13°C° 0.2 mm 2 m/s 685 mmHg 82%
13:00 +13°C° 0.2 mm 2 m/s 685 mmHg 79%
14:00 +13°C° 0.3 mm 2 m/s 685 mmHg 83%
15:00 +12°C° 0.3 mm 1 m/s 685 mmHg 86%
16:00 +11°C° 0.3 mm 1 m/s 684 mmHg 89%
17:00 +11°C° 0.1 mm 1 m/s 684 mmHg 92%
18:00 +10°C° 0.1 mm 1 m/s 684 mmHg 94%
19:00 +9°C° 0.1 mm 1 m/s 684 mmHg 97%
20:00 +8°C° 0 mm 1 m/s 684 mmHg 97%
21:00 +8°C° 0 mm 1 m/s 684 mmHg 97%
22:00 +8°C° 0 mm 1 m/s 684 mmHg 97%
23:00 +7°C° 0.8 mm 2 m/s 684 mmHg 97%

Mâine, 30 Septembrie, Miercuri

Timp Temperatura Precipitaţii Vânt Presiune Umiditate
00:00 +7°C° 0.8 mm 2 m/s 684 mmHg 97%
01:00 +8°C° 0.8 mm 2 m/s 684 mmHg 98%
02:00 +8°C° 1.6 mm 2 m/s 684 mmHg 98%
03:00 +8°C° 1.6 mm 2 m/s 683 mmHg 98%
04:00 +8°C° 1.6 mm 2 m/s 683 mmHg 98%
05:00 +8°C° 1.1 mm 2 m/s 683 mmHg 98%
06:00 +8°C° 1.1 mm 2 m/s 683 mmHg 98%
07:00 +8°C° 1.1 mm 2 m/s 683 mmHg 98%
08:00 +8°C° 0.8 mm 3 m/s 683 mmHg 97%
09:00 +8°C° 0.8 mm 3 m/s 683 mmHg 96%
10:00 +8°C° 0.8 mm 3 m/s 683 mmHg 96%
11:00 +8°C° 1.4 mm 2 m/s 683 mmHg 96%
12:00 +8°C° 1.4 mm 2 m/s 682 mmHg 97%
13:00 +8°C° 1.4 mm 2 m/s 682 mmHg 97%
14:00 +8°C° 2.7 mm 2 m/s 682 mmHg 97%
15:00 +8°C° 2.7 mm 2 m/s 682 mmHg 98%
16:00 +8°C° 2.7 mm 2 m/s 681 mmHg 98%
17:00 +8°C° 2.7 mm 2 m/s 681 mmHg 98%
18:00 +8°C° 2.7 mm 2 m/s 681 mmHg 98%
19:00 +9°C° 2.7 mm 2 m/s 681 mmHg 98%
20:00 +9°C° 1.6 mm 2 m/s 681 mmHg 98%
21:00 +9°C° 1.6 mm 2 m/s 681 mmHg 98%
22:00 +9°C° 1.6 mm 2 m/s 681 mmHg 98%
23:00 +9°C° 0.9 mm 2 m/s 680 mmHg 98%

Poimâine, 1 Octombrie, Joi

Timp Temperatura Precipitaţii Vânt Presiune Umiditate
00:00 +10°C° 0.9 mm 1 m/s 680 mmHg 99%
01:00 +10°C° 0.9 mm 1 m/s 680 mmHg 99%
02:00 +10°C° 0.7 mm 1 m/s 680 mmHg 99%
03:00 +10°C° 0.7 mm 1 m/s 680 mmHg 99%
04:00 +10°C° 0.7 mm 1 m/s 680 mmHg 99%
05:00 +9°C° 0.3 mm 1 m/s 680 mmHg 98%
06:00 +9°C° 0.3 mm 1 m/s 679 mmHg 98%
07:00 +9°C° 0.3 mm 1 m/s 679 mmHg 98%
08:00 +10°C° 0.1 mm 1 m/s 679 mmHg 97%
09:00 +10°C° 0.1 mm 1 m/s 679 mmHg 96%
10:00 +10°C° 0.1 mm 1 m/s 680 mmHg 95%
11:00 +10°C° 0.1 mm 1 m/s 680 mmHg 94%
12:00 +11°C° 0.1 mm 1 m/s 679 mmHg 93%
13:00 +11°C° 0.1 mm 1 m/s 679 mmHg 93%
14:00 +11°C° 0.6 mm 1 m/s 679 mmHg 94%
15:00 +10°C° 0.6 mm 1 m/s 679 mmHg 96%
16:00 +9°C° 0.6 mm 0 m/s 679 mmHg 98%
17:00 +9°C° 0.9 mm 0 m/s 679 mmHg 98%
18:00 +9°C° 0.9 mm 0 m/s 679 mmHg 98%
19:00 +8°C° 0.9 mm 0 m/s 679 mmHg 99%
20:00 +8°C° 0.6 mm 0 m/s 679 mmHg 99%
21:00 +8°C° 0.6 mm 0 m/s 679 mmHg 98%
22:00 +8°C° 0.6 mm 0 m/s 679 mmHg 98%
23:00 +8°C° 0.7 mm 0 m/s 679 mmHg 99%

2 Octombrie, Vineri

Timp Temperatura Precipitaţii Vânt Presiune Umiditate
00:00 +8°C° 0.7 mm 0 m/s 679 mmHg 99%
01:00 +8°C° 0.7 mm 0 m/s 679 mmHg 99%
02:00 +8°C° 0.5 mm 0 m/s 679 mmHg 99%
03:00 +8°C° 0.5 mm 0 m/s 679 mmHg 99%
04:00 +8°C° 0.5 mm 0 m/s 679 mmHg 99%
05:00 +8°C° 0.2 mm 0 m/s 680 mmHg 98%
06:00 +8°C° 0.2 mm 0 m/s 680 mmHg 98%
07:00 +8°C° 0.2 mm 0 m/s 680 mmHg 98%
08:00 +9°C° 0.1 mm 0 m/s 680 mmHg 94%
09:00 +10°C° 0.1 mm 0 m/s 681 mmHg 91%
10:00 +12°C° 0.1 mm 1 m/s 681 mmHg 87%
11:00 +13°C° 0.1 mm 1 m/s 681 mmHg 86%
12:00 +13°C° 0.1 mm 1 m/s 681 mmHg 85%
13:00 +13°C° 0.1 mm 1 m/s 681 mmHg 84%
14:00 +13°C° 0 mm 1 m/s 681 mmHg 84%
15:00 +13°C° 0 mm 2 m/s 681 mmHg 85%
16:00 +13°C° 0 mm 2 m/s 681 mmHg 86%
17:00 +12°C° 0 mm 2 m/s 681 mmHg 88%
18:00 +10°C° 0 mm 2 m/s 681 mmHg 91%
19:00 +9°C° 0 mm 2 m/s 681 mmHg 94%
20:00 +9°C° 0.4 mm 2 m/s 681 mmHg 94%
21:00 +10°C° 0.4 mm 2 m/s 681 mmHg 95%
22:00 +10°C° 0.4 mm 2 m/s 681 mmHg 95%
23:00 +10°C° 0.1 mm 2 m/s 681 mmHg 95%

3 Octombrie, Sâmbătă

Timp Temperatura Precipitaţii Vânt Presiune Umiditate
00:00 +10°C° 0.1 mm 2 m/s 681 mmHg 95%
01:00 +10°C° 0.1 mm 2 m/s 681 mmHg 95%
02:00 +10°C° 0 mm 3 m/s 680 mmHg 95%
03:00 +9°C° 0 mm 3 m/s 680 mmHg 95%
04:00 +9°C° 0 mm 3 m/s 680 mmHg 95%
05:00 +10°C° 0 mm 3 m/s 680 mmHg 94%
06:00 +10°C° 0 mm 3 m/s 680 mmHg 93%
07:00 +10°C° 0 mm 3 m/s 680 mmHg 92%
08:00 +12°C° 0 mm 4 m/s 681 mmHg 84%
09:00 +14°C° 0 mm 4 m/s 681 mmHg 77%
10:00 +16°C° 0 mm 5 m/s 681 mmHg 70%
11:00 +16°C° 0 mm 5 m/s 681 mmHg 66%
12:00 +17°C° 0 mm 5 m/s 682 mmHg 62%
13:00 +19°C° 0 mm 6 m/s 682 mmHg 58%
14:00 +17°C° 0 mm 5 m/s 681 mmHg 64%
15:00 +18°C° 0 mm 4 m/s 681 mmHg 70%
16:00 +17°C° 0 mm 4 m/s 681 mmHg 75%
17:00 +16°C° 0 mm 3 m/s 681 mmHg 80%
18:00 +14°C° 0 mm 3 m/s 680 mmHg 84%
19:00 +13°C° 0 mm 3 m/s 680 mmHg 88%
20:00 +13°C° 0 mm 3 m/s 680 mmHg 87%
21:00 +13°C° 0 mm 3 m/s 680 mmHg 85%
22:00 +13°C° 0 mm 3 m/s 680 mmHg 84%
23:00 +12°C° 0 mm 3 m/s 680 mmHg 84%

4 Octombrie, Duminică

Timp Temperatura Precipitaţii Vânt Presiune Umiditate
00:00 +12°C° 0 mm 3 m/s 680 mmHg 83%
01:00 +12°C° 0 mm 3 m/s 679 mmHg 83%
02:00 +12°C° 0 mm 3 m/s 679 mmHg 83%
03:00 +12°C° 0 mm 3 m/s 679 mmHg 83%
04:00 +12°C° 0 mm 3 m/s 679 mmHg 84%
05:00 +12°C° 0 mm 3 m/s 679 mmHg 83%
06:00 +12°C° 0 mm 3 m/s 679 mmHg 82%
07:00 +13°C° 0 mm 3 m/s 680 mmHg 82%
08:00 +13°C° 0.4 mm 4 m/s 680 mmHg 82%
09:00 +14°C° 0.4 mm 4 m/s 680 mmHg 81%
10:00 +15°C° 0.4 mm 5 m/s 681 mmHg 81%
11:00 +15°C° 0.2 mm 5 m/s 681 mmHg 79%
12:00 +15°C° 0.2 mm 5 m/s 681 mmHg 77%
13:00 +15°C° 0.2 mm 5 m/s 682 mmHg 74%
14:00 +15°C° 0 mm 4 m/s 682 mmHg 74%
15:00 +14°C° 0 mm 3 m/s 682 mmHg 73%
16:00 +15°C° 0 mm 2 m/s 682 mmHg 73%
17:00 +13°C° 0 mm 2 m/s 682 mmHg 79%
18:00 +12°C° 0 mm 2 m/s 682 mmHg 85%
19:00 +9°C° 0 mm 2 m/s 682 mmHg 91%
20:00 +9°C° 0 mm 2 m/s 682 mmHg 90%
21:00 +9°C° 0 mm 2 m/s 682 mmHg 89%
22:00 +8°C° 0 mm 2 m/s 682 mmHg 88%
23:00 +9°C° 0 mm 1 m/s 682 mmHg 87%
Arată mai mult

We Need Your Consent

Meteoprog and our Service Providers may store and access personal data such as cookies, device identifiers or other similar technologies on your device and process such data to personalise content and ads, as well as provide social media features and to analyse the traffic.

  • Store and/or access information on your device

    Cookies, device identifiers or other information can be stored or accessed on your device for the purposes indicated above.

  • Personalised ads and content, ad and content measurement, audience insights, and products development

    Ads and content can be personalised based on a profile. More data can be added to better personalise ads and content. Ad and content performance can be measured. Insights about the audience who saw the ads and content can be derived. Such data can be used to develop or improve user’s experience, systems and software.

By clicking ‘I Agree’ you will allow the use of indicated cookies, device identifiers, web beacons or other similar technologies. Your settings can be changed in the browser on your device.

For certain purposes, legitimate interests may be relied on, rather than consent. You can read more about this in our Privacy and Cookie Policy.